{"data":{"norad_id":57469,"intl_designator":"2023-107N","name":"STARLINK-30171","alt_names":[],"object_type":"PAYLOAD","status":"ACTIVE","operator":null,"country":"US","launch_date":"2023-07-28","launch_site_code":"AFETR","launch_vehicle":null,"mission":null,"orbit_class":"UNKNOWN","rcs_meters":null,"size_class":null,"mass_kg":null,"dimensions":null,"purposes":["comms"],"wikipedia_slug":null,"has_3d_model":false,"image_url":null,"decayed_at":null,"tle_current":{"epoch":"2026-05-25T00:48:07.248672Z","epoch_age_seconds":75453,"freshness":"FRESH","line1":"1 57469U 23107N   26145.03341723 -.00001758  00000+0 -54412-4 0  9997","line2":"2 57469  43.0000 268.2992 0001039 295.5775  64.4969 15.27562580156787","mean_motion":15.2756258,"eccentricity":0.0001039,"inclination_deg":43,"raan_deg":268.2992,"arg_perigee_deg":295.5775,"mean_anomaly_deg":64.4969,"bstar":-5.4412e-5,"rev_number":15678,"period_min":94.267823711681,"perigee_km":482.38837562713,"apogee_km":483.8141409372,"semimajor_km":6861.2382582822,"source":"CELESTRAK","updated_at":"2026-05-25T13:38:18.325192Z"}}}